PROPCUBE 3

Last updated on Wed Sep 09 2026 00:03:51 GMT+0000 (Coordinated Universal Time)

1 40973U 15058K 26251.25162020 .00001705 00000+0 14671-3 0 9990 2 40973 64.7689 352.8999 0130562 28.3453 332.4683 14.94740525127215
UTC large
Height (km)
Speed (km/s)
/
Latitude / Longitude
Inclination (degrees)
Orbital Period (minutes)
Azimuth
Elevation
Range (km)
Doppler Factor

Next 0 passes for location: London (51.5072 / 0.1276)

No passes found over London.
PROPCUBE 3